User: anonymous   Login
Location: Newark
(48.0000°N, 67.0000°E)
Time: 11:57:36
(UTC+00:00)
Language:

Tiros 1 - Orbit

View from above orbital plane
View from above orbital plane
View from above satellite
View from above satellite

Ground track
Ground track

The orbit data is extracted from the following two-line orbital elements,

1    29U 60002B   20058.86273435 -.00000129 +00000-0 +11814-4 0  9994
2    29 048.3794 110.5250 0023557 120.3067 240.0179 14.74343044202228
Epoch (UTC): 27 February 2020 20:42:20
Eccentricity: 0.0023557
inclination: 48.3794°
perigee height: 630 km
apogee height: 664 km
right ascension of ascending node: 110.5250°
argument of perigee: 120.3067°
revolutions per day: 14.74343044
mean anomaly at epoch: 240.0179°
orbit number at epoch: 20222

The dashed part of the orbit path shows where the satellite is in the earth's shadow,  

DLR